FENGYUN 1C DEB, 30840

Orbit data source: Space-Track

FENGYUN 1C DEB, 30840 is space debris in SSO originally from a launch on Mon, 10 May 1999 UTC launched from the Taiyaun Space Center, China (TSC). Fengyun 1C debris stems from the Chinese weather satellite Fengyun-1C, which was intentionally destroyed by a Chinese anti-satellite missile in 2007. This event dramatically increased the amount of space debris, with thousands of trackable fragments posing hazards to satellites and human spaceflight. The Fengyun 1C debris cloud has become a focal point in discussions about space sustainability and the need for international regulations to prevent the creation of new debris.

Loading next visibility...
Identifier
30840, 1999-025AWA
Orbit
SSO
Country
Flag of CNCN / PRC
Related business
Manufacturer
Unknown
Mission
Spacecraft
Bus & Motor
Unknown
Mass
Unknown
Launch date (UTC)
1999-05-10 (27 years ago)
Launch vehicle
Unknown
Launch site
Taiyaun Space Center, China (TSC)
Object type
Payload
Rocket body
Debris
Shape & HBR
Unknown shape, 0.1 m
Radar Cross Section
Small (<0.1 m²)

Expand to show TLE details & history
Last TLE update: 3 days ago

TLE from 3 days ago
0 FENGYUN 1C DEB
1 30840U 99025AWA 26252.98458388  .00001546  00000-0  22699-3 0  9997
2 30840  98.0187 261.7033 0210089 236.1555 121.9497 14.63161078770957
Epoch: 2026-09-09T23:37Z
TLE epoch observation values (Epoch: 2026-09-09T23:37:48.047Z)
Latitude
0.00001°
Longitude
-81.7757°
Altitude
766.705 km
Speed
7.428 km/s
True Right ascension
17h 26m 48s
True Declination
0° 00' 00"
Sunlit
Object was in daylight at epoch
Visualization orbit readout
Latitude
Unknown
Longitude
Unknown
Altitude
Unknown
Speed
Unknown
Apparent Right ascension
Unknown
Apparent Declination
Unknown
Sunlit
N/A
Visualization observer readout
Local Sidereal Time
10:20:49
Azimuth
Unknown
Elevation
Unknown
Doppler factor
Unknown
Orbital elements
Apogee altitude
828.337 km
Perigee altitude
531.768 km
Semi-major axis
7,058.189 km
Eccentricity
0.02101
Inclination
98.0187°
RAAN
261.7033°
Arg. of periapsis
236.1555°
True anomaly
123.96402°
Mean anomaly
121.9497°
Eccentric anomaly
122.95969°
Mean motion
3.66019 °/min
Orbital period
98.36 mins
BSTAR
0.00022699
Loading maneuver chart data...
Computing Atmospheric mass density...

Documentation

Showing up to 5 results
|